Regional Weather Roundup
Issued by NWS

Home | Current Version | Previous Version | Text Only | Print | Product List | Glossary Off
Versions: 1 2 3 4 5 6 7 8 9 10 11 12 13 14 15 16 17 18 19 20 21 22 23 24 25 26 27 28 29 30 31 32 33 34 35 36 37 38 39 40 41 42 43 44 45 46 47 48 49 50

000
ASUS43 KMPX 272310
RWRMN
WEATHER ROUNDUP FOR MINNESOTA
NATIONAL WEATHER SERVICE TWIN CITIES/CHANHASSEN MN
600 PM CDT MON MAR 27 2017


NOTE: "FAIR" INDICATES FEW OR NO CLOUDS BELOW 12,000 FEET WITH NO
SIGNIFICANT WEATHER AND/OR OBSTRUCTIONS TO VISIBILITY. N/A MEANS
CURRENT SKY AND/OR WEATHER CONDITIONS ARE NOT AVAILABLE.

MNZ060>063-068>070-280000-
   Twin Cities Metro

CITY           SKY/WX    TMP DP  RH WIND       PRES   REMARKS
TWIN CITIES    MOSUNNY   56  33  42 SE7       29.94S
ST PAUL        MOSUNNY   55  39  54 SE9       29.95S
CRYSTAL        SUNNY     58  31  35 NE8       29.93S
BLAINE         MOSUNNY   59  36  41 NE6       29.94F
LAKEVILLE      PTSUNNY   50  37  62 SE5       29.95S
EDEN PRAIRIE   CLOUDY    59  31  34 E7        29.93S
SOUTH ST PAUL  CLOUDY    52  37  55 SE6       29.95S
LAKE ELMO      PTSUNNY   55  37  50 S3        29.96S
$$
MNZ001>005-007-008-013>017-022>024-027-028-280000-
   Northwest Minnesota

CITY           SKY/WX    TMP DP  RH WIND       PRES   REMARKS
BEMIDJI        SUNNY     56  27  33 CALM      29.96S
HALLOCK        MOSUNNY   41  39  93 N5        30.02F
ROSEAU         MOSUNNY   48  39  71 NW5       30.00R
WARROAD        MOSUNNY   45  37  76 E3        30.00S
THIEF RVR FALL MOSUNNY  N/A N/A N/A NW9       30.01
CROOKSTON      CLOUDY    43  41  93 N6        30.01S FOG
FOSSTON        SUNNY     57  36  44 W6        29.97S
DETROIT LAKES  SUNNY     55  34  44 CALM      29.96F
MOORHEAD       SUNNY     55  43  62 NE5       29.96F
PARK RAPIDS    SUNNY     59  27  29 CALM      29.94S
MAHNOMEN       FAIR      55  39  55 NW6       29.97R
$$
MNZ006-009>011-018-025>026-280000-
   North Central Minnesota

CITY           SKY/WX    TMP DP  RH WIND       PRES   REMARKS
BAUDETTE       SUNNY     51  31  46 N9        29.98S
FLAG ISLAND    CLOUDY    43  30  61 CALM      30.00R
INTL FALLS     SUNNY     53  25  33 NE7       29.97S
WASKISH        SUNNY     45  34  65 W6        29.97S
BIG FORK       SUNNY     57  27  30 CALM      29.96S
LONGVILLE      SUNNY     55  28  35 CALM      29.96S
GRAND RAPIDS   SUNNY     54  29  38 CALM      29.98S
CRANE LAKE     SUNNY     54  25  32 CALM      29.98S
ORR            SUNNY     55  23  28 CALM      29.94S
COOK           SUNNY     55  25  30 NE3       29.97S
WALKER         FAIR      53  31  43 E3        29.96S
$$
MNZ012-019>021-037-280000-
   Northeast Minnesota

CITY           SKY/WX    TMP DP  RH WIND       PRES   REMARKS
DULUTH         MOSUNNY   48  35  60 SE7       29.97R
ELY            SUNNY     54  19  26 CALM      29.96S
HIBBING        SUNNY     54  23  30 CALM      29.96R
EVELETH        SUNNY     55  19  24 CALM      29.97S
DULUTH HARBOR  SUNNY     41  36  81 CALM      30.00S
TWO HARBORS    SUNNY     50  37  62 S3        29.97R
SILVER BAY     SUNNY     48  34  57 S5        29.96R
GRAND MARAIS     N/A     40  35  83 W5        29.99S
G MARAIS ARPRT SUNNY     45  28  53 CALM      29.97S
$$
MNZ029>031-032-039>041-046>048-054>057-064-280000-
   West Central Minnesota

CITY           SKY/WX    TMP DP  RH WIND       PRES   REMARKS
FERGUS FALLS   MOSUNNY   57  39  51 W5        29.97S
WHEATON        SUNNY     57  32  38 E5        29.97R
MORRIS         SUNNY     59  36  41 SE5       29.94S
ALEXANDRIA     SUNNY     56  35  45 E3        29.95S
ELBOW LAKE     FAIR      56  35  45 NE5       29.96S
WADENA         SUNNY     55  36  47 CALM      29.94F
GLENWOOD       SUNNY     57  36  44 E5        29.96S
APPLETON       SUNNY     57  37  47 CALM      29.95S
BENSON         SUNNY     61  28  29 CALM      29.96S
ORTONVILLE     SUNNY     57  36  44 CALM      29.95S
MADISON        SUNNY     59  37  44 E6        29.95S
WILLMAR        FAIR      57  34  41 NE6       29.96S
$$
MNZ033>034-036-042>043-049>051-058-059-280000-
   Central Minnesota

CITY           SKY/WX    TMP DP  RH WIND       PRES   REMARKS
ST CLOUD       MOSUNNY   56  36  47 NE6       29.95S
SAUK CENTRE    FAIR      55  35  47 E5        29.95F
PAYNESVILLE      N/A     55  34  46 NE5       29.96S
AITKIN         SUNNY     59  27  29 CALM      29.94S
PINE RIVER     SUNNY     57  34  41 N5        29.98F
BRAINERD       MOSUNNY   55  32  41 S3        29.96S
STAPLES        SUNNY     57  32  38 CALM      29.95S
LONG PRAIRIE   FAIR      54  34  47 CALM      29.95S
LITTLE FALLS   CLOUDY    54  34  47 CALM      29.96S
LITCHFIELD     MOSUNNY   57  36  44 NE5       29.95F
BUFFALO        SUNNY     56  32  40 N6        29.96S
MAPLE LAKE     MOSUNNY   57  37  47 NE6       29.95F
HUTCHINSON     SUNNY     57  37  47 NE7       29.95S
$$
MNZ037-044-045-052-053-280000-
   East Central Minnesota

CITY           SKY/WX    TMP DP  RH WIND       PRES   REMARKS
PRINCETON      MOSUNNY   57  37  47 CALM      29.96S
MORA           SUNNY     54  34  47 CALM      29.97S
CAMBRIDGE      CLOUDY    57  39  51 CALM      29.93F
RUSH CITY      SUNNY     57  37  48 N8        29.94F
MOOSE LAKE     SUNNY     54  32  43 CALM      29.95S
CLOQUET        SUNNY     52  32  46 SE5       29.96S
MCGREGOR       SUNNY     55  32  41 CALM      29.95S
$$
MNZ071>073-080-081-089-090-097-098-280000-
   Southwest Minnesota

CITY           SKY/WX    TMP DP  RH WIND       PRES   REMARKS
MONTEVIDEO     SUNNY     63  37  39 E3        29.96S
GRANITE FALLS  SUNNY     59  35  39 NE5       29.95S
CANBY          PTSUNNY   56  38  49 CALM      29.95S
MARSHALL       SUNNY     56  38  50 CALM      29.95S
REDWOOD FALLS  SUNNY     58  36  43 VRB3      29.94S
OLIVIA         SUNNY     55  34  44 E5        29.94S
PIPESTONE      SUNNY     57  34  41 SE3       29.93R
WINDOM         SUNNY     54  37  54 NE8       29.95R
WORTHINGTON    SUNNY     51  39  63 E6        29.95S
JACKSON        MOSUNNY   52  37  58 CALM      29.95S
TRACY          SUNNY     56  39  51 CALM      29.94F
SLAYTON        SUNNY     54  39  58 E3        29.95R
$$
MNZ065>067-074>077-082>085-091>093-280000-
   South Central Minnesota

CITY           SKY/WX    TMP DP  RH WIND       PRES   REMARKS
NEW ULM        SUNNY     55  36  47 NE3       29.93F
ST JAMES       SUNNY     54  39  58 CALM      29.95F
FAIRMONT       PTSUNNY   51  41  68 E6        29.95S
GLENCOE        SUNNY     58  38  47 N3        29.94S
FARIBAULT      CLOUDY    52  39  62 NE3       29.96S
OWATONNA       CLOUDY    50  37  62 NE6       29.95S
WASECA         CLOUDY    52  41  66 CALM      29.96S
ALBERT LEA     MOSUNNY   48  37  66 NE9       29.94F
$$
MNZ078>079-086>088-094>096-280000-
   Southeast Minnesota

CITY           SKY/WX    TMP DP  RH WIND       PRES   REMARKS
ROCHESTER      CLOUDY    45  40  82 N7        29.95S
RED WING       CLOUDY    50  36  57 CALM      29.96S
STANTON        CLOUDY    51  39  62 E5        29.94F
DODGE CENTER   CLOUDY    46  37  71 N8        29.95S
WINONA         CLOUDY    46  37  71 N3        29.97R
AUSTIN         CLOUDY    46  39  76 NE8       29.94F
PRESTON        CLOUDY    44  38  81 N7        29.95R
$$
ABBREVIATIONS USED IN REMARKS
   TC - TEMPERATURES IN CELSIUS
  WCI - WIND CHILL INDEX
   HX - HEAT INDEX
  VSB - VISIBILITY
$$



USA.gov is the U.S. government's official web portal to all federal, state and local government web resources and services.